Météo par heure à Aavasaksa

Ce jour, 17 Avril, Samedi

Heure Température Précipitation Vent Pression Humidité
00:00 0°C° 0 mm 1 m/s 768 mmHg 95%
01:00 0°C° 0 mm 1 m/s 768 mmHg 95%
02:00 -1°C° 0 mm 1 m/s 768 mmHg 95%
03:00 -1°C° 0 mm 1 m/s 768 mmHg 94%
04:00 -1°C° 0 mm 1 m/s 768 mmHg 92%
05:00 -1°C° 0 mm 1 m/s 768 mmHg 91%
06:00 +1°C° 0 mm 1 m/s 768 mmHg 87%
07:00 +3°C° 0 mm 1 m/s 768 mmHg 82%
08:00 +5°C° 0 mm 1 m/s 768 mmHg 77%
09:00 +5°C° 0 mm 2 m/s 768 mmHg 75%
10:00 +6°C° 0 mm 2 m/s 768 mmHg 73%
11:00 +7°C° 0 mm 2 m/s 768 mmHg 71%
12:00 +8°C° 0 mm 2 m/s 768 mmHg 71%
13:00 +8°C° 0 mm 3 m/s 768 mmHg 71%
14:00 +8°C° 0 mm 3 m/s 767 mmHg 70%
15:00 +8°C° 0 mm 2 m/s 767 mmHg 75%
16:00 +8°C° 0 mm 2 m/s 767 mmHg 79%
17:00 +7°C° 0 mm 2 m/s 767 mmHg 83%
18:00 +5°C° 0 mm 2 m/s 767 mmHg 88%
19:00 +4°C° 0 mm 1 m/s 767 mmHg 92%
20:00 +2°C° 0 mm 1 m/s 767 mmHg 97%
21:00 +1°C° 0 mm 1 m/s 767 mmHg 97%
22:00 +1°C° 0 mm 1 m/s 767 mmHg 98%
23:00 0°C° 0 mm 1 m/s 767 mmHg 98%

Demain, 18 Avril, Dimanche

Heure Température Précipitation Vent Pression Humidité
00:00 0°C° 0 mm 1 m/s 767 mmHg 98%
01:00 0°C° 0 mm 1 m/s 767 mmHg 98%
02:00 +1°C° 0 mm 1 m/s 767 mmHg 98%
03:00 +1°C° 0 mm 1 m/s 767 mmHg 98%
04:00 +1°C° 0 mm 1 m/s 767 mmHg 98%
05:00 +1°C° 0 mm 1 m/s 767 mmHg 97%
06:00 +2°C° 0 mm 1 m/s 767 mmHg 96%
07:00 +3°C° 0 mm 1 m/s 767 mmHg 94%
08:00 +3°C° 0 mm 1 m/s 767 mmHg 92%
09:00 +4°C° 0 mm 1 m/s 767 mmHg 88%
10:00 +5°C° 0 mm 1 m/s 767 mmHg 84%
11:00 +7°C° 0 mm 1 m/s 767 mmHg 80%
12:00 +7°C° 0 mm 1 m/s 767 mmHg 77%
13:00 +7°C° 0 mm 2 m/s 767 mmHg 73%
14:00 +8°C° 0 mm 2 m/s 767 mmHg 70%
15:00 +8°C° 0 mm 2 m/s 766 mmHg 70%
16:00 +8°C° 0 mm 2 m/s 766 mmHg 71%
17:00 +8°C° 0 mm 2 m/s 766 mmHg 71%
18:00 +7°C° 0 mm 2 m/s 766 mmHg 78%
19:00 +5°C° 0 mm 2 m/s 766 mmHg 84%
20:00 +4°C° 0 mm 2 m/s 766 mmHg 90%
21:00 +3°C° 0 mm 2 m/s 766 mmHg 91%
22:00 +3°C° 0 mm 1 m/s 766 mmHg 91%
23:00 +3°C° 0 mm 1 m/s 766 mmHg 92%

Après-demain, 19 Avril, Lundi

Heure Température Précipitation Vent Pression Humidité
00:00 +2°C° 0 mm 1 m/s 766 mmHg 90%
01:00 +2°C° 0 mm 1 m/s 766 mmHg 89%
02:00 +1°C° 0 mm 2 m/s 766 mmHg 87%
03:00 +1°C° 0 mm 2 m/s 766 mmHg 88%
04:00 +1°C° 0 mm 2 m/s 765 mmHg 89%
05:00 +1°C° 0 mm 2 m/s 765 mmHg 89%
06:00 +2°C° 0 mm 2 m/s 765 mmHg 86%
07:00 +4°C° 0 mm 2 m/s 765 mmHg 82%
08:00 +5°C° 0 mm 2 m/s 765 mmHg 78%
09:00 +5°C° 0 mm 3 m/s 765 mmHg 74%
10:00 +8°C° 0 mm 3 m/s 765 mmHg 70%
11:00 +9°C° 0 mm 3 m/s 765 mmHg 66%
12:00 +9°C° 0 mm 3 m/s 765 mmHg 64%
13:00 +10°C° 0 mm 3 m/s 764 mmHg 61%
14:00 +10°C° 0 mm 4 m/s 764 mmHg 59%
15:00 +10°C° 0 mm 3 m/s 764 mmHg 59%
16:00 +9°C° 0 mm 3 m/s 764 mmHg 59%
17:00 +9°C° 0 mm 3 m/s 763 mmHg 59%
18:00 +8°C° 0 mm 3 m/s 763 mmHg 65%
19:00 +5°C° 0 mm 3 m/s 763 mmHg 71%
20:00 +5°C° 0 mm 2 m/s 763 mmHg 77%
21:00 +4°C° 0 mm 2 m/s 763 mmHg 79%
22:00 +4°C° 0 mm 2 m/s 763 mmHg 82%
23:00 +3°C° 0 mm 2 m/s 763 mmHg 84%

20 Avril, Mardi

Heure Température Précipitation Vent Pression Humidité
00:00 +2°C° 0 mm 2 m/s 762 mmHg 85%
01:00 +2°C° 0 mm 2 m/s 762 mmHg 86%
02:00 +2°C° 0 mm 2 m/s 762 mmHg 87%
03:00 +2°C° 0 mm 2 m/s 762 mmHg 87%
04:00 +1°C° 0 mm 2 m/s 761 mmHg 87%
05:00 +1°C° 0 mm 2 m/s 761 mmHg 87%
06:00 +3°C° 0 mm 2 m/s 761 mmHg 82%
07:00 +3°C° 0 mm 3 m/s 760 mmHg 76%
08:00 +4°C° 0 mm 3 m/s 760 mmHg 70%
09:00 +7°C° 0 mm 3 m/s 760 mmHg 65%
10:00 +7°C° 0 mm 4 m/s 759 mmHg 60%
11:00 +8°C° 0 mm 4 m/s 759 mmHg 55%
12:00 +8°C° 0 mm 4 m/s 759 mmHg 54%
13:00 +10°C° 0 mm 4 m/s 758 mmHg 53%
14:00 +9°C° 0 mm 5 m/s 758 mmHg 52%
15:00 +10°C° 0 mm 4 m/s 757 mmHg 54%
16:00 +10°C° 0 mm 4 m/s 757 mmHg 56%
17:00 +8°C° 0 mm 4 m/s 756 mmHg 57%
18:00 +8°C° 0 mm 3 m/s 756 mmHg 63%
19:00 +7°C° 0 mm 3 m/s 756 mmHg 68%
20:00 +5°C° 0 mm 3 m/s 755 mmHg 73%
21:00 +5°C° 0 mm 2 m/s 755 mmHg 76%
22:00 +5°C° 0 mm 2 m/s 755 mmHg 78%
23:00 +4°C° 0 mm 2 m/s 754 mmHg 81%

21 Avril, Mercredi

Heure Température Précipitation Vent Pression Humidité
00:00 +4°C° 0 mm 2 m/s 754 mmHg 82%
01:00 +3°C° 0 mm 2 m/s 754 mmHg 82%
02:00 +3°C° 0 mm 2 m/s 753 mmHg 83%
03:00 +2°C° 0 mm 2 m/s 753 mmHg 84%
04:00 +2°C° 0 mm 2 m/s 752 mmHg 85%
05:00 +2°C° 0 mm 2 m/s 752 mmHg 85%
06:00 +3°C° 0 mm 2 m/s 752 mmHg 80%
07:00 +4°C° 0 mm 2 m/s 752 mmHg 74%
08:00 +4°C° 0 mm 3 m/s 751 mmHg 69%
09:00 +5°C° 0 mm 3 m/s 751 mmHg 64%
10:00 +7°C° 0 mm 3 m/s 751 mmHg 60%
11:00 +8°C° 0 mm 3 m/s 750 mmHg 55%
12:00 +9°C° 0 mm 3 m/s 750 mmHg 53%
13:00 +9°C° 0 mm 3 m/s 749 mmHg 50%
14:00 +10°C° 0 mm 2 m/s 749 mmHg 47%
15:00 +10°C° 0 mm 2 m/s 748 mmHg 47%
16:00 +11°C° 0 mm 1 m/s 748 mmHg 46%
17:00 +11°C° 0 mm 1 m/s 747 mmHg 45%
18:00 +10°C° 0 mm 1 m/s 747 mmHg 50%
19:00 +9°C° 0 mm 1 m/s 747 mmHg 55%
20:00 +7°C° 0 mm 0 m/s 746 mmHg 59%
21:00 +7°C° 0 mm 1 m/s 746 mmHg 62%
22:00 +7°C° 0 mm 1 m/s 746 mmHg 65%
23:00 +6°C° 0 mm 1 m/s 745 mmHg 68%

22 Avril, Jeudi

Heure Température Précipitation Vent Pression Humidité
00:00 +6°C° 0 mm 1 m/s 745 mmHg 71%
01:00 +5°C° 0 mm 1 m/s 745 mmHg 73%
02:00 +4°C° 0 mm 2 m/s 745 mmHg 75%
03:00 +4°C° 0 mm 2 m/s 745 mmHg 77%
04:00 +4°C° 0 mm 2 m/s 745 mmHg 79%
05:00 +3°C° 0 mm 2 m/s 744 mmHg 81%
06:00 +4°C° 0 mm 2 m/s 745 mmHg 78%
07:00 +3°C° 0 mm 3 m/s 745 mmHg 75%
08:00 +4°C° 0 mm 3 m/s 745 mmHg 73%
09:00 +3°C° 0 mm 4 m/s 746 mmHg 75%
10:00 +3°C° 0 mm 4 m/s 746 mmHg 78%
11:00 +2°C° 0 mm 5 m/s 746 mmHg 80%
12:00 +2°C° 0 mm 5 m/s 747 mmHg 76%
13:00 +2°C° 0 mm 5 m/s 748 mmHg 71%
14:00 +3°C° 0 mm 5 m/s 748 mmHg 67%
15:00 +2°C° 0 mm 5 m/s 749 mmHg 67%
16:00 +2°C° 0 mm 5 m/s 750 mmHg 67%
17:00 +2°C° 0 mm 5 m/s 750 mmHg 68%
18:00 +1°C° 0 mm 5 m/s 751 mmHg 69%
19:00 +1°C° 0 mm 4 m/s 752 mmHg 70%
20:00 0°C° 0 mm 4 m/s 752 mmHg 72%
21:00 0°C° 0.1 mm 4 m/s 753 mmHg 73%
22:00 -1°C° 0.1 mm 4 m/s 754 mmHg 75%
23:00 -1°C° 0.1 mm 4 m/s 754 mmHg 77%
Voir plus

Nous avons besoin de votre consentement

Meteoprog et ses fournisseurs de services peuvent stocker et accéder à des données personnelles telles que des cookies, des identifiants d'appareils ou d'autres technologies similaires sur votre appareil et traiter ces données pour personnaliser le contenu et les publicités, ainsi que pour fournir des fonctionnalités de médias sociaux et analyser le trafic.

  • Stocker et/ou accéder à des informations sur votre appareil

    Des cookies, des identifiants d'appareils ou d'autres informations peuvent être stockés ou accessibles sur votre appareil aux fins indiquées ci-dessus.

  • Annonces et contenus personnalisés, mesure des annonces et des contenus, connaissance de l'audience et développement de produits

    Les annonces et le contenu peuvent être personnalisés en fonction d'un profil. D'autres données peuvent être ajoutées pour mieux personnaliser les annonces et le contenu. Les performances des publicités et du contenu peuvent être mesurées. Il est possible d'obtenir des informations sur le public qui a vu les publicités et le contenu. Ces données peuvent être utilisées pour développer ou améliorer l'expérience de l'utilisateur, les systèmes et les logiciels.

En cliquant sur "J'accepte", vous autorisez l'utilisation de cookies, des identifiants d'appareils, des balises web ou d'autres technologies similaires. Vos paramètres peuvent être modifiés dans le navigateur de votre appareil.

Dans certains cas, des intérêts légitimes peuvent être invoqués plutôt qu'un consentement. Vous pouvez en savoir plus à ce sujet dans notre Politique de confidentialité et de cookies.